Regional Weather Roundup
Issued by NWS

Home | Current Version | Previous Version | Text Only | Print | Product List | Glossary On
Versions: 1 2 3 4 5 6 7 8 9 10 11 12 13 14 15 16 17 18 19 20 21 22 23 24 25 26 27 28 29 30 31 32 33 34 35 36 37 38 39 40 41 42 43 44 45 46 47 48 49 50
000
ASUS42 KKEY 271610
RWRKEY

FLORIDA REGIONAL WEATHER ROUNDUP FOR THE FLORIDA KEYS
NATIONAL WEATHER SERVICE KEY WEST FLORIDA
1200 PM EDT MON APR 27 2015

...SOUTH FLORIDA AND THE KEYS...

CITY           SKY/WX    TMP DP  RH WIND       PRES   REMARKS
FORT MYERS     PTSUNNY   88  72  58 W12       29.84F HX  94
SW REGIONAL AP PTSUNNY   88  71  57 W6        29.85F HX  94
NAPLES         MOSUNNY   87  73  62 W8        29.85F HX  94
MIAMI          PTSUNNY   90  72  55 VRB7      29.85F HX  97
WEST KENDALL   MOSUNNY   91  72  53 N10       29.85F HX  98
HOMESTEAD      SUNNY     90  73  57 W8        29.84F HX  99
MARATHON       MOSUNNY   89  78  70 VRB5      29.86F HX 103
BOCA CHICA NAS PTSUNNY   87  76  69 S9        29.87S HX  97
KEY WEST INTL  MOSUNNY   85  75  72 SW8       29.87S HX  93

...INTERNATIONAL WEATHER...

CITY           SKY/WX    TMP DP  RH WIND       PRES   REMARKS
NASSAU BAHAMAS PTSUNNY   88  75  66 NW9       29.88S HX  97
CANCUN MEXICO  PTSUNNY   86  75  70 S21       29.77F HX  95
COZUMEL MEXICO MOSUNNY   82  75  78 SE17      29.79R

ADJACENT COASTAL WATERS...

STATION/POSITION TIME  SKY/WX   TEMP    WIND        PRES    WAVE
                                AIR SEA DIR/SP/G            HT/PER
                 (UTC)          (F)     (DEG/KT/KT) (MB)    (FT/S)
PULASKI SHOAL LI 1500            82     120/  4/  5 1011.3R
SAND KEY         1550            83     240/  3/  4 1011.6F
SOMBRERO KEY     1600            83     210/  6/  7 1012.1F
LONG KEY         1500            84 87  310/  7/  8 1012.4R
MOLASSES REEF    1600            86 82  140/  2/  3 1011.3F
FOWEY ROCKS      NOT AVBL

$$



USA.gov is the U.S. government's official web portal to all federal, state and local government web resources and services.